This demonstration page uses our WeatherBlox Daily Observations layout. Learn more.

Left ArrowRight Arrow

Hourly Observations for April 29, 2020

Temp ( °F °C ) Dew Point ( °F °C ) Humidity (%) Winds ( mph kmh ) Pressure ( in mb ) Visibility ( mi km ) Precip ( " mm )
12:53 am 00:53 Clear 66 18.9 57 13.9 73 73 NW 5 7 29.92 1013 10 16 0.00 0.00
1:53 am 01:53 Clear 63 17.2 56 13.3 78 78 NNE 5 7 29.92 1013 10 16 0.00 0.00
2:53 am 02:53 Clear 65 18.3 56 13.3 73 73 Calm 29.91 1013 10 16 0.00 0.00
3:53 am 03:53 Clear 65 18.3 55 12.8 70 70 NW 3 6 29.91 1013 10 16 0.00 0.00
4:53 am 04:53 Clear 63 17.2 56 13.3 78 78 Calm 29.91 1013 10 16 0.00 0.00
5:53 am 05:53 Clear 62 16.7 55 12.8 78 78 WNW 6 9 29.91 1013 10 16 0.00 0.00
6:53 am 06:53 Sunny 61 16.1 56 13.3 84 84 ESE 3 6 29.92 1013 10 16 0.00 0.00
7:53 am 07:53 Sunny 65 18.3 57 13.9 76 76 ENE 3 6 29.93 1014 10 16 0.00 0.00
8:53 am 08:53 Sunny 69 20.6 57 13.9 66 66 Calm 29.94 1014 10 16 0.00 0.00
9:53 am 09:53 Sunny 74 23.3 56 13.3 54 54 Calm 29.93 1014 10 16 0.00 0.00
10:53 am 10:53 Sunny 76 24.4 58 14.4 54 54 SSW 6 9 29.94 1014 10 16 0.00 0.00
11:53 am 11:53 Sunny 81 27.2 59 15 47 47 Calm 29.93 1014 10 16 0.00 0.00
12:53 pm 12:53 Sunny 82 27.8 57 13.9 42 42 SE 8 13 29.91 1013 10 16 0.00 0.00
1:53 pm 13:53 Sunny 83 28.3 57 13.9 41 41 SSE 8 13 29.91 1013 10 16 0.00 0.00
2:53 pm 14:53 Sunny 83 28.3 57 13.9 41 41 VRB 5 7 29.89 1012 10 16 0.00 0.00
3:53 pm 15:53 Sunny 83 28.3 58 14.4 43 43 SSW 8 13 29.88 1012 10 16 0.00 0.00
4:53 pm 16:53 Sunny 84 28.9 57 13.9 40 40 S 12 19 29.87 1011 10 16 0.00 0.00
5:53 pm 17:53 Sunny 84 28.9 58 14.4 41 41 S 7 11 29.86 1011 10 16 0.00 0.00
6:53 pm 18:53 Sunny 82 27.8 58 14.4 44 44 S 8 13 29.86 1011 10 16 0.00 0.00
7:53 pm 19:53 Sunny 79 26.1 60 15.6 52 52 SSE 8 13 29.87 1011 10 16 0.00 0.00
8:53 pm 20:53 Clear 78 25.6 55 12.8 45 45 SW 6 9 29.89 1012 10 16 0.00 0.00
9:53 pm 21:53 Mostly Clear 75 23.9 48 8.9 39 39 SW 3 6 29.92 1013 10 16 0.00 0.00
10:53 pm 22:53 Cloudy 71 21.7 49 9.4 46 46 WSW 3 6 29.93 1014 10 16 0.00 0.00
11:53 pm 23:53 Cloudy 70 21.1 48 8.9 46 46 Calm 29.94 1014 10 16 0.00 0.00

Powered by AerisWeather